Lid_Strength_Index
2 2 2 2 2 2 2 2 2 2 2 2 2 2 2 2 2 5 6 2 1 -1 -1 5 7 8 9 11 12 13 17 18 16 15 14 12 13 12 11 12 12 10 10 9 3
2 2 2 2 2 2 2 2 2 2 2 2 2 2 2 2 6 8 3 -0 -1 -2 2 4 6 7 11 12 13 14 17 16 13 12 13 12 13 12 13 13 13 12 7 7 4
3 2 2 3 3 2 2 2 2 2 2 2 2 2 2 4 9 8 -1 -1 -1 -1 1 2 3 6 10 12 14 14 16 13 12 12 12 12 13 12 13 14 12 11 8 6 4
3 3 3 3 2 2 2 2 2 2 2 2 2 2 2 6 17 5 -2 -1 -1 0 2 5 5 9 11 11 11 15 14 12 12 11 11 12 12 13 13 11 11 11 7 5 5
3 3 3 3 2 2 2 2 2 2 1 1 1 1 4 10 10 4 1 2 3 2 3 5 7 9 11 11 10 12 14 13 12 11 12 12 13 12 13 11 11 9 6 5 5
3 3 3 3 3 2 2 1 1 1 1 0 0 1 6 12 5 4 4 5 3 3 4 4 6 6 9 10 11 10 10 11 12 12 12 13 13 13 13 11 11 9 7 6 5
3 3 3 3 2 2 2 1 1 1 1 1 1 3 7 9 4 4 4 5 4 5 6 3 3 7 8 10 8 9 11 10 11 12 13 12 14 14 12 11 12 12 9 6 5
4 3 3 2 2 2 1 1 1 1 1 1 1 5 9 4 4 4 4 5 4 4 3 2 3 5 8 8 10 12 13 15 11 10 11 12 16 12 10 11 11 13 13 10 7
3 3 3 3 2 2 2 1 1 1 1 2 7 7 10 3 5 3 4 7 8 5 3 2 4 7 8 11 13 13 16 16 14 10 10 10 15 12 11 11 11 10 12 12 10
3 3 3 2 2 2 1 1 2 3 4 5 6 8 7 8 6 8 7 8 9 9 9 6 7 10 10 12 17 16 16 16 16 12 10 11 14 12 11 10 11 11 13 12 12
4 3 3 2 1 1 2 7 10 11 9 11 10 10 9 7 7 8 7 8 9 11 15 12 12 14 12 11 11 12 13 14 13 10 11 11 12 10 10 12 12 12 13 14 12
3 3 2 2 1 1 5 9 8 7 12 8 8 8 7 7 10 8 6 11 12 15 12 12 14 11 9 10 11 12 13 14 12 11 12 12 12 11 10 10 10 11 11 12 13
3 2 2 2 1 4 7 7 3 4 11 10 8 8 7 7 10 9 7 8 11 14 14 16 14 9 11 11 12 13 14 14 14 12 11 13 14 12 11 10 10 11 11 11 12
3 2 2 1 5 7 7 4 3 3 15 13 10 7 5 5 9 4 4 7 10 14 12 15 13 13 14 13 11 15 11 12 12 14 18 12 19 13 11 11 10 9 10 12 13
2 2 2 1 5 8 5 3 2 6 25 12 9 3 5 7 8 8 4 6 11 11 11 15 13 12 14 14 11 13 10 12 12 15 15 15 18 15 12 13 11 10 8 10 11
2 2 1 4 5 5 3 3 6 18 27 13 9 9 9 9 8 7 7 5 6 10 10 12 9 10 11 10 10 10 12 12 13 15 20 16 17 17 15 13 12 10 8 8 8
2 1 1 3 8 5 4 8 20 23 12 15 12 10 10 11 10 9 10 13 13 16 19 12 13 11 10 13 11 12 15 19 21 21 21 14 16 15 14 11 11 10 10 8 8
2 1 3 4 5 4 7 14 25 20 16 10 10 11 13 11 12 13 13 14 11 12 15 17 19 14 11 13 15 14 14 19 23 22 20 15 19 15 11 9 12 11 11 9 9
3 6 7 6 3 5 9 21 21 15 10 11 12 15 15 11 11 15 15 14 13 11 15 16 17 11 11 11 12 15 16 13 17 27 24 20 16 12 12 12 11 10 11 10 9
9 9 9 5 4 7 13 16 17 8 9 10 15 13 15 14 14 14 15 12 11 10 9 13 19 12 11 10 11 13 11 17 16 22 23 21 21 18 17 13 12 12 12 11 11
10 13 8 4 6 11 18 19 12 8 8 11 13 14 13 13 13 14 14 11 9 10 10 13 15 16 12 14 16 14 15 16 15 17 21 22 19 17 15 15 15 14 13 14 13
8 16 8 5 14 18 15 15 7 9 8 10 10 11 12 12 13 14 14 11 8 9 15 12 14 19 16 12 12 12 14 14 19 23 21 22 21 21 22 21 20 16 14 14 15
10 14 8 6 14 16 15 12 9 11 11 14 11 10 9 12 14 14 12 9 8 10 13 12 15 18 17 14 12 14 15 15 17 18 21 22 21 22 23 20 17 17 16 16 17
9 14 14 9 8 11 12 15 16 9 10 9 10 9 11 14 13 14 12 9 9 9 7 9 13 16 19 16 14 15 14 13 14 19 22 19 19 19 18 18 18 18 16 18 18
9 13 14 12 11 10 14 12 12 16 11 9 13 12 12 14 17 20 14 11 11 9 11 14 19 15 14 17 16 15 17 17 15 15 17 20 19 17 16 14 14 20 16 18 17
10 11 10 13 9 10 11 14 11 11 13 13 13 11 11 13 13 14 12 12 12 12 14 15 17 17 19 17 16 18 18 17 18 21 23 22 16 16 17 13 15 13 15 19 18
6 6 9 10 10 13 13 11 11 10 9 9 10 11 13 11 10 9 8 9 10 11 13 13 16 19 21 18 17 21 19 19 18 18 19 21 18 16 18 17 16 16 15 15 15